When you browse on this site, cookies collect data to enhance your experience and personalize the content and advertising you see.
Visit our Privacy Policy to learn more. By continuing to use the site, you agree to this use of cookies and data.
  • In Lithuania
  • List of Countries
  • For 7 days
  • Water Temperature
  • Satellite Maps
  • Weather Map
  • Weather Widgets
  • user-avatar
    Login

    Hourly Weather Córdoba

    Today, 21 May, Tuesday

    Time Temperature Precipitation Wind Pressure Humidity
    00:00 +9°C° 0 mm 5 mps 726 mmHg 84%
    01:00 +9°C° 0 mm 5 mps 726 mmHg 82%
    02:00 +9°C° 0 mm 5 mps 727 mmHg 80%
    03:00 +8°C° 0 mm 4 mps 727 mmHg 81%
    04:00 +8°C° 0 mm 4 mps 727 mmHg 81%
    05:00 +7°C° 0 mm 4 mps 727 mmHg 81%
    06:00 +7°C° 0 mm 4 mps 727 mmHg 80%
    07:00 +7°C° 0 mm 5 mps 728 mmHg 78%
    08:00 +7°C° 0 mm 5 mps 728 mmHg 77%
    09:00 +9°C° 0 mm 5 mps 729 mmHg 71%
    10:00 +10°C° 0 mm 5 mps 729 mmHg 65%
    11:00 +11°C° 0 mm 6 mps 730 mmHg 58%
    12:00 +13°C° 0 mm 6 mps 729 mmHg 55%
    13:00 +14°C° 0 mm 5 mps 729 mmHg 53%
    14:00 +15°C° 0 mm 5 mps 729 mmHg 50%
    15:00 +14°C° 0 mm 5 mps 729 mmHg 55%
    16:00 +13°C° 0 mm 5 mps 729 mmHg 60%
    17:00 +12°C° 0 mm 5 mps 729 mmHg 64%
    18:00 +11°C° 0 mm 4 mps 729 mmHg 70%
    19:00 +10°C° 0 mm 4 mps 730 mmHg 76%
    20:00 +9°C° 0 mm 3 mps 730 mmHg 82%
    21:00 +9°C° 0 mm 3 mps 730 mmHg 82%
    22:00 +9°C° 0 mm 3 mps 730 mmHg 82%
    23:00 +9°C° 0 mm 3 mps 731 mmHg 82%

    Tomorrow, 22 May, Wednesday

    Time Temperature Precipitation Wind Pressure Humidity
    00:00 +9°C° 0 mm 3 mps 730 mmHg 82%
    01:00 +9°C° 0 mm 2 mps 730 mmHg 83%
    02:00 +8°C° 0 mm 2 mps 730 mmHg 84%
    03:00 +8°C° 0 mm 2 mps 730 mmHg 86%
    04:00 +8°C° 0 mm 2 mps 729 mmHg 89%
    05:00 +7°C° 0 mm 2 mps 729 mmHg 91%
    06:00 +8°C° 0.1 mm 2 mps 730 mmHg 89%
    07:00 +8°C° 0.1 mm 2 mps 730 mmHg 88%
    08:00 +9°C° 0.1 mm 2 mps 730 mmHg 86%
    09:00 +9°C° 0.1 mm 3 mps 730 mmHg 82%
    10:00 +10°C° 0.1 mm 3 mps 731 mmHg 78%
    11:00 +10°C° 0.1 mm 4 mps 731 mmHg 74%
    12:00 +11°C° 0.1 mm 4 mps 730 mmHg 72%
    13:00 +11°C° 0.1 mm 4 mps 730 mmHg 69%
    14:00 +11°C° 0.1 mm 4 mps 729 mmHg 67%
    15:00 +11°C° 0 mm 3 mps 729 mmHg 70%
    16:00 +10°C° 0 mm 3 mps 729 mmHg 73%
    17:00 +10°C° 0 mm 2 mps 729 mmHg 76%
    18:00 +9°C° 0 mm 2 mps 729 mmHg 82%
    19:00 +8°C° 0 mm 2 mps 729 mmHg 87%
    20:00 +7°C° 0 mm 2 mps 729 mmHg 93%
    21:00 +7°C° 0 mm 2 mps 729 mmHg 91%
    22:00 +8°C° 0 mm 1 mps 729 mmHg 89%
    23:00 +8°C° 0 mm 1 mps 730 mmHg 87%

    Day after tomorrow, 23 May, Thursday

    Time Temperature Precipitation Wind Pressure Humidity
    00:00 +8°C° 0 mm 1 mps 729 mmHg 85%
    01:00 +7°C° 0 mm 1 mps 729 mmHg 83%
    02:00 +7°C° 0 mm 1 mps 729 mmHg 81%
    03:00 +7°C° 0 mm 1 mps 729 mmHg 78%
    04:00 +7°C° 0 mm 1 mps 728 mmHg 76%
    05:00 +7°C° 0 mm 1 mps 728 mmHg 74%
    06:00 +8°C° 0 mm 1 mps 728 mmHg 70%
    07:00 +8°C° 0 mm 1 mps 729 mmHg 66%
    08:00 +8°C° 0 mm 1 mps 729 mmHg 62%
    09:00 +11°C° 0 mm 1 mps 729 mmHg 54%
    10:00 +13°C° 0 mm 1 mps 729 mmHg 46%
    11:00 +15°C° 0 mm 1 mps 729 mmHg 38%
    12:00 +16°C° 0 mm 1 mps 728 mmHg 36%
    13:00 +17°C° 0 mm 2 mps 727 mmHg 34%
    14:00 +18°C° 0 mm 2 mps 727 mmHg 32%
    15:00 +17°C° 0 mm 2 mps 726 mmHg 37%
    16:00 +16°C° 0 mm 2 mps 726 mmHg 41%
    17:00 +15°C° 0 mm 2 mps 726 mmHg 46%
    18:00 +14°C° 0 mm 2 mps 726 mmHg 51%
    19:00 +12°C° 0 mm 2 mps 726 mmHg 55%
    20:00 +10°C° 0 mm 2 mps 726 mmHg 60%
    21:00 +10°C° 0 mm 2 mps 726 mmHg 59%
    22:00 +10°C° 0 mm 2 mps 726 mmHg 58%
    23:00 +9°C° 0 mm 2 mps 726 mmHg 58%

    24 May, Friday

    Time Temperature Precipitation Wind Pressure Humidity
    00:00 +9°C° 0 mm 2 mps 726 mmHg 54%
    01:00 +10°C° 0 mm 1 mps 726 mmHg 51%
    02:00 +10°C° 0 mm 1 mps 725 mmHg 48%
    03:00 +10°C° 0 mm 1 mps 725 mmHg 45%
    04:00 +10°C° 0 mm 1 mps 725 mmHg 42%
    05:00 +10°C° 0 mm 1 mps 725 mmHg 39%
    06:00 +10°C° 0 mm 1 mps 725 mmHg 37%
    07:00 +11°C° 0 mm 1 mps 725 mmHg 35%
    08:00 +11°C° 0 mm 1 mps 725 mmHg 33%
    09:00 +14°C° 0 mm 1 mps 725 mmHg 29%
    10:00 +17°C° 0 mm 2 mps 725 mmHg 25%
    11:00 +19°C° 0 mm 2 mps 725 mmHg 21%
    12:00 +20°C° 0 mm 3 mps 725 mmHg 21%
    13:00 +22°C° 0 mm 3 mps 724 mmHg 21%
    14:00 +23°C° 0 mm 4 mps 723 mmHg 21%
    15:00 +21°C° 0 mm 4 mps 723 mmHg 25%
    16:00 +20°C° 0 mm 4 mps 722 mmHg 30%
    17:00 +18°C° 0 mm 4 mps 722 mmHg 34%
    18:00 +17°C° 0 mm 4 mps 722 mmHg 36%
    19:00 +16°C° 0 mm 3 mps 722 mmHg 38%
    20:00 +14°C° 0 mm 3 mps 723 mmHg 39%
    21:00 +13°C° 0 mm 3 mps 722 mmHg 39%
    22:00 +13°C° 0 mm 3 mps 722 mmHg 39%
    23:00 +12°C° 0 mm 3 mps 722 mmHg 39%

    25 May, Saturday

    Time Temperature Precipitation Wind Pressure Humidity
    00:00 +12°C° 0 mm 3 mps 722 mmHg 40%
    01:00 +12°C° 0 mm 3 mps 721 mmHg 42%
    02:00 +12°C° 0 mm 3 mps 721 mmHg 43%
    03:00 +12°C° 0 mm 3 mps 721 mmHg 46%
    04:00 +12°C° 0 mm 3 mps 721 mmHg 48%
    05:00 +11°C° 0 mm 3 mps 720 mmHg 51%
    06:00 +11°C° 0 mm 4 mps 720 mmHg 53%
    07:00 +11°C° 0 mm 4 mps 721 mmHg 54%
    08:00 +12°C° 0 mm 4 mps 721 mmHg 56%
    09:00 +14°C° 0 mm 4 mps 721 mmHg 50%
    10:00 +16°C° 0 mm 5 mps 721 mmHg 44%
    11:00 +19°C° 0 mm 6 mps 721 mmHg 39%
    12:00 +20°C° 0 mm 6 mps 720 mmHg 38%
    13:00 +22°C° 0 mm 6 mps 720 mmHg 37%
    14:00 +23°C° 0 mm 6 mps 719 mmHg 36%
    15:00 +21°C° 0 mm 5 mps 719 mmHg 40%
    16:00 +20°C° 0 mm 5 mps 719 mmHg 44%
    17:00 +19°C° 0 mm 4 mps 719 mmHg 48%
    18:00 +18°C° 0 mm 4 mps 720 mmHg 51%
    19:00 +17°C° 0 mm 3 mps 720 mmHg 55%
    20:00 +14°C° 0 mm 3 mps 721 mmHg 58%
    21:00 +15°C° 0 mm 2 mps 721 mmHg 61%
    22:00 +14°C° 0 mm 2 mps 721 mmHg 63%
    23:00 +13°C° 0 mm 2 mps 721 mmHg 66%

    26 May, Sunday

    Time Temperature Precipitation Wind Pressure Humidity
    00:00 +13°C° 0 mm 1 mps 721 mmHg 66%
    01:00 +13°C° 0 mm 1 mps 721 mmHg 67%
    02:00 +12°C° 0 mm 1 mps 721 mmHg 68%
    03:00 +12°C° 0 mm 1 mps 721 mmHg 69%
    04:00 +12°C° 0 mm 1 mps 721 mmHg 70%
    05:00 +11°C° 0 mm 1 mps 721 mmHg 71%
    06:00 +12°C° 0 mm 1 mps 721 mmHg 69%
    07:00 +12°C° 0 mm 1 mps 722 mmHg 67%
    08:00 +12°C° 0 mm 1 mps 723 mmHg 66%
    09:00 +14°C° 0 mm 2 mps 723 mmHg 60%
    10:00 +16°C° 0 mm 2 mps 723 mmHg 55%
    11:00 +18°C° 0 mm 3 mps 724 mmHg 50%
    12:00 +19°C° 0 mm 3 mps 723 mmHg 47%
    13:00 +20°C° 0 mm 3 mps 723 mmHg 45%
    14:00 +20°C° 0 mm 3 mps 722 mmHg 43%
    15:00 +19°C° 0 mm 3 mps 722 mmHg 48%
    16:00 +18°C° 0 mm 2 mps 723 mmHg 53%
    17:00 +17°C° 0 mm 2 mps 723 mmHg 58%
    18:00 +16°C° 0 mm 2 mps 723 mmHg 63%
    19:00 +15°C° 0 mm 1 mps 723 mmHg 67%
    20:00 +14°C° 0 mm 1 mps 724 mmHg 72%
    21:00 +14°C° 0 mm 1 mps 724 mmHg 75%
    22:00 +13°C° 0 mm 1 mps 724 mmHg 77%
    23:00 +13°C° 0 mm 1 mps 724 mmHg 80%
    Show more